Valdosta Regional, GA

2:19 AM EDT on October 23, 2017 (GMT -0400)
Valdosta Regional

Weather History for KVLD - February, 2014

Change the Weather History Date:

Thursday, February 13, 2014

  Actual Average Record
Temperature  
Mean Temperature 47 °F 54 °F  
Max Temperature 57 °F 66 °F 75 °F (2017)
Min Temperature 37 °F 41 °F 30 °F (2015)
Degree Days  
Heating Degree Days 18 11  
Month to date heating degree days 96 164  
Since 1 July heating degree days 952 1233  
Moisture  
Dew Point 34 °F    
Average Humidity 63    
Maximum Humidity 85    
Minimum Humidity 41    
Precipitation  
Precipitation 0.00 in 0.14 in 0.00 in (2017)
Month to date precipitation 1.13  
Year to date precipitation 5.70  
Sea Level Pressure  
Sea Level Pressure 29.87 in    
Wind  
Wind Speed 4 mph (NW)    
Max Wind Speed 13 mph    
Max Gust Speed 23 mph    
Visibility 10 miles    
Events      
T = Trace of Precipitation, MM = Missing Value Source: NWS Daily Summary

Daily Weather History Graph

Daily Weather History Graph

Search for Another Location

Airport or City:

Trip Planner

Search our weather history database for the weather conditions in past years. The results will help you decide how hot, cold, wet, or windy it might be!

Date:

Astronomy

Feb. 13, 2014 Rise Set
Actual Time 7:15 AM EST 6:19 PM EST
Civil Twilight 6:50 AM EST 6:44 PM EST
Nautical Twilight 6:22 AM EST 7:12 PM EST
Astronomical Twilight 5:54 AM EST 7:40 PM EST
Moon 5:26 PM EST (2/13) 6:07 AM EST (2/13)
Length of Visible Light 11h 53m
Length of Day
11h 03m
Waxing Gibbous, 98% of the Moon is Illuminated
Feb 13
Waxing Gibbous
Feb 14
Full
Feb 22
Last Quarter
Mar 1
New
Mar 8
First Quarter

Hourly Weather History & Observations

Time (EST) Temp. Windchill Dew Point Humidity Pressure Visibility Wind Dir Wind Speed Gust Speed Precip Events Conditions
12:19 AM 41.0 °F 37.1 °F 37.4 °F 87% 29.70 in 10.0 mi Variable 5.8 mph - 0.00 in   Overcast
12:53 AM 41.0 °F 36.4 °F 36.0 °F 82% 29.74 in 5.0 mi North 6.9 mph - 0.00 in   Haze
1:53 AM 39.9 °F 35.8 °F 36.0 °F 86% 29.74 in 5.0 mi North 5.8 mph - N/A   Overcast
2:53 AM 39.0 °F 34.8 °F 35.1 °F 86% 29.77 in 10.0 mi Variable 5.8 mph - N/A   Overcast
3:53 AM 39.0 °F 35.7 °F 34.0 °F 82% 29.78 in 7.0 mi Variable 4.6 mph - N/A   Overcast
4:53 AM 39.0 °F 34.8 °F 34.0 °F 82% 29.79 in 9.0 mi Variable 5.8 mph - N/A   Overcast
5:53 AM 37.9 °F 32.7 °F 34.0 °F 86% 29.82 in 8.0 mi WNW 6.9 mph - N/A   Overcast
6:53 AM 39.0 °F 35.7 °F 34.0 °F 82% 29.84 in 10.0 mi Variable 4.6 mph - N/A   Overcast
7:14 AM 39.2 °F 37.0 °F 33.8 °F 81% 29.82 in 10.0 mi Variable 3.5 mph - N/A   Overcast
7:53 AM 39.0 °F 34.8 °F 33.1 °F 79% 29.86 in 10.0 mi Variable 5.8 mph - N/A   Overcast
8:53 AM 39.0 °F 34.8 °F 33.1 °F 79% 29.89 in 10.0 mi Variable 5.8 mph - N/A   Overcast
9:53 AM 39.9 °F 35.8 °F 33.1 °F 77% 29.92 in 10.0 mi Variable 5.8 mph - N/A   Overcast
10:15 AM 41.0 °F 39.0 °F 33.8 °F 76% 29.90 in 10.0 mi Variable 3.5 mph - N/A   Overcast
10:23 AM 41.0 °F 37.1 °F 33.8 °F 76% 29.91 in 10.0 mi Variable 5.8 mph - N/A   Overcast
10:44 AM 41.0 °F 38.0 °F 33.8 °F 76% 29.91 in 10.0 mi Variable 4.6 mph - N/A   Overcast
10:53 AM 44.1 °F 41.5 °F 35.1 °F 71% 29.93 in 10.0 mi Variable 4.6 mph - N/A   Overcast
11:53 AM 46.9 °F - 33.1 °F 59% 29.92 in 10.0 mi Variable 6.9 mph - N/A   Overcast
12:53 PM 50.0 °F - 35.1 °F 57% 29.88 in 10.0 mi Variable 5.8 mph - N/A   Mostly Cloudy
1:53 PM 53.1 °F - 36.0 °F 52% 29.87 in 10.0 mi WNW 8.1 mph - N/A   Mostly Cloudy
2:00 PM 53.6 °F - 35.6 °F 51% 29.84 in 10.0 mi Variable 5.8 mph - N/A   Partly Cloudy
2:53 PM 55.0 °F - 35.1 °F 47% 29.86 in 10.0 mi Variable 6.9 mph - N/A   Scattered Clouds
3:53 PM 55.9 °F - 35.1 °F 45% 29.87 in 10.0 mi Variable 6.9 mph - N/A   Clear
4:53 PM 55.9 °F - 32.0 °F 40% 29.89 in 10.0 mi Variable 5.8 mph - N/A   Clear
5:53 PM 53.1 °F - 32.0 °F 45% 29.91 in 10.0 mi West 3.5 mph - N/A   Clear
6:53 PM 45.0 °F - 35.1 °F 68% 29.92 in 10.0 mi Calm Calm - N/A   Clear
7:53 PM 43.0 °F - 34.0 °F 71% 29.94 in 10.0 mi Calm Calm - N/A   Clear
8:53 PM 39.9 °F - 33.1 °F 77% 29.96 in 10.0 mi Calm Calm - N/A   Clear
9:53 PM 39.0 °F - 34.0 °F 82% 29.98 in 10.0 mi Calm Calm - N/A   Clear
10:53 PM 37.0 °F - 32.0 °F 82% 29.99 in 10.0 mi Calm Calm - N/A   Clear
11:53 PM 37.0 °F - 32.0 °F 82% 29.99 in 10.0 mi Calm Calm - N/A   Clear